User: anonymous   Login
Location: ???? ?????
(37.9132°N, 22.9869°E)
Time: 20:58:49
(UTC+00:00)
Language:

Cosmos 1238 Rocket - Orbit

View from above orbital plane
View from above orbital plane
View from above satellite
View from above satellite

Ground track
Ground track

The orbit data is extracted from the following two-line orbital elements,

1 12139U 81003B   24276.61856471  .00047625  00000-0  16603-2 0  9999
2 12139  82.9396  45.6152 0349203 167.6570 193.3492 14.87120119236298
Epoch (UTC): 02 October 2024 14:50:43
Eccentricity: 0.0349203
inclination: 82.9396°
perigee height: 363 km
apogee height: 851 km
right ascension of ascending node: 45.6152°
argument of perigee: 167.6570°
revolutions per day: 14.87120119
mean anomaly at epoch: 193.3492°
orbit number at epoch: 23629

The dashed part of the orbit path shows where the satellite is in the earth's shadow,  

DLR